Location: Devore Heights
(34.2372°N, 117.4156°W)
Time: 22:08:40
(UTC+00:00)

Transit 4A - Pass Details

Date: 22 September 2024
Orbit: 864 x 978 km, 66.8° (Epoch: 13 October)

Event Time Altitude Azimuth Distance (km) Brightness Sun altitude
Rises 18:11:41 0° 334° (NNW) 3,623 10.6 49.7°
Reaches altitude 10° 18:14:13 10° 336° (NNW) 2,689 10.0 50.0°
Maximum altitude 18:20:32 82° 64° (ENE) 982 9.1 50.7°
Drops below altitude 10° 18:26:55 10° 152° (SSE) 2,716 11.2 51.4°
Sets 18:29:29 0° 153° (SSE) 3,661 11.6 51.7°
